Volver al catálogo

CHECKMATE 5

ActivoMilitarPO
NORAD 56163·PAYLOAD·🇺🇸 United States

Lanzado Apr 2, 2023 desde Vandenberg Space Force Base

Loading…

Próximos Pases (próximas 24 horas)

TLE

ActualizadoSource: Space-Track

Época: Sep 14, 2026, 11:39 UTC

1 56163U 23050B   26257.48599424  .00000087  00000-0  67090-4 0  9999
2 56163  81.0049 345.8980 0007430  82.5778 277.6222 13.84995888174523

Sigue CHECKMATE 5 en tiempo real con AllMySat

Download on the App Store